[[{"header":{"parameterUnit":"m.s-1","parameterCategory":1,"la1":30.2991,"la2":30.254,"lo1":-89.0895,"lo2":-89.0444,"dy":0.0017,"dx":0.0017,"nx":28,"ny":28,"refTime":"2023-03-27T15:00:00:Z","depth":0,"parameterNumber":2,"parameterNumberName":"U-component_of_WINDS"},"data":[0,0,0,0,0,0,0,0,0,0,0,0,0,0,0,0,0,0,0,0,0,0,0,0,0,0,0,0,0,0,0,0,0,0,0,0,0,0,0,0,0,0,0,0,0,0,0,0,0,0,0,0,0,0,0,0,0,0,-1.6439,-1.644,0,-1.648,-1.648,-1.6481,-1.6507,-1.6508,-1.6508,-1.6508,-1.6546,-1.6547,-1.6548,0,0,0,0,0,0,0,0,0,0,0,0,0,-1.6382,-1.6383,-1.6439,-1.644,-1.644,-1.648,-1.648,-1.6481,-1.6507,-1.6508,-1.6508,-1.6508,-1.6546,-1.6547,-1.6548,0,0,0,0,0,0,0,0,0,0,0,0,0,-1.6413,-1.6383,-1.6439,-1.6458,-1.646,-1.6479,-1.648,-1.6481,-1.6507,-1.6508,-1.6508,-1.6508,-1.6546,-1.6547,-1.6548,-1.655,0,0,-1.6552,-1.6553,0,0,0,0,0,0,0,0,-1.6411,-1.6415,-1.6455,-1.6457,-1.6459,-1.6489,-1.6474,-1.6504,-1.6507,-1.6489,-1.6508,-1.6508,-1.6527,-1.653,-1.6537,-1.6552,-1.6554,-1.6552,-1.6553,-1.6554,-1.6554,0,0,0,0,0,0,0,-1.6409,-1.6413,-1.6455,-1.6455,-1.6458,-1.6464,-1.6469,-1.648,-1.6506,-1.6491,-1.6493,-1.6498,-1.6528,-1.6535,-1.6538,-1.6554,-1.6552,-1.6553,-1.6554,-1.6555,-1.6573,-1.6573,0,0,0,0,0,0,-1.6404,-1.6411,-1.6454,-1.6456,-1.6436,-1.6465,-1.647,-1.6479,-1.6506,-1.651,-1.6497,-1.6499,-1.6533,-1.6536,-1.6539,-1.6543,-1.6554,-1.6555,-1.6555,-1.6574,-1.6573,-1.6573,0,0,0,0,0,0,-1.6403,-1.6408,-1.6452,-1.6434,-1.6441,-1.6465,-1.6475,-1.648,-1.6487,-1.6511,-1.6515,-1.65,-1.6533,-1.6537,-1.6547,-1.6545,-1.6555,-1.6556,-1.6574,-1.6573,-1.6573,-1.6551,0,0,0,0,0,0,-1.6401,-1.6407,-1.6409,-1.6434,-1.6441,-1.6461,-1.6475,-1.648,-1.6489,-1.6492,-1.6515,-1.6519,-1.6534,-1.6545,-1.6549,-1.6547,-1.6557,-1.6574,-1.6574,-1.6573,-1.6552,-1.655,-1.6548,0,0,0,0,0,-1.6399,-1.64,-1.6409,-1.6414,-1.6444,-1.646,-1.6464,-1.6483,-1.6489,-1.6491,-1.6506,-1.6518,-1.6545,-1.6546,-1.655,-1.6548,-1.6574,-1.6574,-1.6573,-1.6553,-1.655,-1.6548,0,0,0,0,0,0,-1.6373,-1.6404,-1.6414,-1.6424,-1.6439,-1.6465,-1.6467,-1.6479,-1.6493,-1.6494,-1.6516,-1.6521,-1.6528,-1.654,-1.6541,-1.6552,-1.6561,-1.6561,-1.6544,-1.6542,-1.654,-1.6536,-1.6559,0,0,0,0,0,-1.6368,-1.638,-1.6406,-1.6412,-1.642,-1.6442,-1.645,-1.6463,-1.6479,-1.6486,-1.6502,-1.6517,-1.6529,-1.6536,-1.6548,-1.6554,-1.6559,-1.6555,-1.6552,-1.6551,-1.655,-1.6554,-1.6552,-1.6571,-1.6571,-1.6571,0,0,-1.6359,-1.6377,-1.6383,-1.6407,-1.6421,-1.6431,-1.6447,-1.6458,-1.6465,-1.6487,-1.6498,-1.651,-1.6528,-1.6536,-1.654,-1.6546,-1.6546,-1.655,-1.6548,-1.6549,-1.6553,-1.6551,-1.6549,-1.6571,-1.6571,-1.6571,0,0,-1.6346,-1.6362,-1.6369,-1.6382,-1.6403,-1.6418,-1.642,-1.6444,-1.6453,-1.6465,-1.6481,-1.649,-1.651,-1.6522,-1.6531,-1.6524,-1.6535,-1.6527,-1.6516,-1.6519,-1.6517,-1.6516,-1.6513,-1.6512,-1.6527,-1.6527,-1.6527,0,-1.6332,-1.6349,-1.637,-1.638,-1.639,-1.6411,-1.6417,-1.6429,-1.6453,-1.6458,-1.6464,-1.649,-1.6504,-1.6514,-1.6513,-1.6519,-1.6521,-1.6524,-1.6516,-1.6515,-1.6514,-1.6511,-1.651,-1.6525,-1.6526,-1.6526,-1.6526,0,-1.6329,-1.6341,-1.6344,-1.6367,-1.6377,-1.6385,-1.6406,-1.6414,-1.6426,-1.644,-1.6451,-1.6469,-1.6485,-1.6488,-1.65,-1.6501,-1.6503,-1.6512,-1.6522,-1.6511,-1.6509,-1.6508,-1.6524,-1.6524,-1.6525,-1.6525,0,0,-1.6301,-1.6336,-1.6337,-1.6347,-1.6372,-1.6381,-1.639,-1.6407,-1.6412,-1.6428,-1.6435,-1.6451,-1.646,-1.647,-1.6483,-1.6486,-1.6478,-1.6495,-1.6496,-1.6491,-1.648,-1.6472,-1.647,-1.6487,-1.6486,-1.6486,-1.6478,0,-1.6292,-1.6309,-1.6329,-1.6339,-1.635,-1.637,-1.6378,-1.6393,-1.6407,-1.6417,-1.6431,-1.6443,-1.6454,-1.646,-1.6464,-1.6479,-1.6476,-1.648,-1.6492,-1.6492,-1.6486,-1.6469,-1.6461,-1.6452,-1.6477,-1.6477,-1.6477,0,-1.6284,-1.6299,-1.6311,-1.6334,-1.634,-1.6346,-1.6363,-1.6373,-1.639,-1.64,-1.6411,-1.6426,-1.6435,-1.6444,-1.6456,-1.6458,-1.6464,-1.6473,-1.6473,-1.6474,-1.6483,-1.6469,-1.645,-1.6448,-1.6476,-1.6476,-1.6476,0,-1.6261,-1.6284,-1.6294,-1.6303,-1.6331,-1.6335,-1.6347,-1.6365,-1.6374,-1.6388,-1.6394,-1.6409,-1.6416,-1.6427,-1.6445,-1.645,-1.6455,-1.6466,-1.6462,-1.6462,-1.6462,-1.6461,-1.6442,-1.6467,-1.6467,-1.6467,-1.6467,0,-1.6248,-1.6254,-1.6284,-1.629,-1.6297,-1.632,-1.6326,-1.6339,-1.6355,-1.6363,-1.6382,-1.6389,-1.6413,-1.6422,-1.6436,-1.6444,-1.6448,-1.6455,-1.6458,-1.6453,-1.6452,-1.6456,-1.6457,-1.6467,-1.6467,-1.6467,-1.6467,0,-1.6223,-1.6244,-1.6256,-1.6282,-1.6289,-1.6293,-1.6315,-1.6321,-1.6336,-1.6346,-1.635,-1.6372,-1.6385,-1.6404,-1.6422,-1.6431,-1.6436,-1.6442,-1.643,-1.6432,-1.6427,-1.6427,-1.641,-1.6409,-1.6435,-1.6435,-1.6435,0,-1.6213,-1.6218,-1.6245,-1.6253,-1.6264,-1.6276,-1.6285,-1.6307,-1.6316,-1.6337,-1.634,-1.6354,-1.6366,-1.6385,-1.6403,-1.6416,-1.6422,-1.6416,-1.6424,-1.6419,-1.6421,-1.642,-1.6421,-1.6413,-1.6413,-1.6412,-1.6412,0,-1.6193,-1.6203,-1.6216,-1.6233,-1.6244,-1.6258,-1.6273,-1.6277,-1.6302,-1.6311,-1.6324,-1.6334,-1.6353,-1.6366,-1.6382,-1.6394,-1.6406,-1.6409,-1.6409,-1.6403,-1.6395,-1.6398,-1.6424,-1.6409,-1.641,-1.641,-1.641,-1.641,-1.6175,-1.618,-1.62,-1.6214,-1.6228,-1.6241,-1.6248,-1.6264,-1.6276,-1.6294,-1.6306,-1.6318,-1.6336,-1.6359,-1.637,-1.6379,-1.6385,-1.6385,-1.6385,-1.6384,-1.6381,-1.6395,-1.6383,-1.6383,-1.6383,-1.6383,-1.6383,0,-1.6155,-1.6169,-1.6181,-1.6202,-1.6213,-1.6226,-1.6243,-1.625,-1.6262,-1.6277,-1.6289,-1.6305,-1.6318,-1.6337,-1.6351,-1.6355,-1.6362,-1.6358,-1.6357,-1.636,-1.6376,-1.6374,-1.6353,-1.6353,-1.6353,-1.6353,-1.6353,-1.6353,-1.6145,-1.6155,-1.6168,-1.6184,-1.6198,-1.6211,-1.622,-1.6232,-1.6245,-1.6261,-1.6273,-1.6286,-1.6302,-1.6318,-1.6331,-1.6336,-1.634,-1.6335,-1.6341,-1.6356,-1.6359,-1.6361,-1.636,-1.6336,-1.6335,-1.6324,-1.6324,-1.6324]},{"header":{"parameterUnit":"m.s-1","parameterCategory":1,"la1":30.2991,"la2":30.254,"lo1":-89.0895,"lo2":-89.0444,"dy":0.0017,"dx":0.0017,"nx":28,"ny":28,"refTime":"2023-03-27T15:00:00:Z","depth":0,"parameterNumber":3,"parameterNumberName":"V-component_of_WINDS"},"data":[0,0,0,0,0,0,0,0,0,0,0,0,0,0,0,0,0,0,0,0,0,0,0,0,0,0,0,0,0,0,0,0,0,0,0,0,0,0,0,0,0,0,0,0,0,0,0,0,0,0,0,0,0,0,0,0,0,0,2.311,2.311,0,2.3143,2.3143,2.3144,2.3141,2.314,2.314,2.3139,2.3171,2.3173,2.3174,0,0,0,0,0,0,0,0,0,0,0,0,0,2.3044,2.3045,2.311,2.311,2.3111,2.3143,2.3143,2.3144,2.3141,2.314,2.3139,2.3139,2.3171,2.3172,2.3174,0,0,0,0,0,0,0,0,0,0,0,0,0,2.3074,2.3046,2.311,2.3113,2.3114,2.3143,2.3143,2.3144,2.3141,2.314,2.3139,2.3139,2.317,2.3172,2.3174,2.3202,0,0,2.318,2.3181,0,0,0,0,0,0,0,0,2.3073,2.3077,2.3112,2.3113,2.3114,2.3137,2.3132,2.3163,2.3141,2.313,2.3139,2.3138,2.316,2.3163,2.3171,2.3203,2.3205,2.3181,2.3182,2.3183,2.3183,0,0,0,0,0,0,0,2.307,2.3075,2.3123,2.3113,2.3114,2.3113,2.3116,2.3138,2.3149,2.3131,2.3131,2.3135,2.3161,2.3169,2.3172,2.3205,2.3181,2.3182,2.3184,2.3184,2.3264,2.3265,0,0,0,0,0,0,2.3068,2.3074,2.3122,2.3124,2.3091,2.3115,2.3119,2.313,2.3149,2.3151,2.3136,2.3135,2.3166,2.3169,2.3173,2.3208,2.3183,2.3184,2.3186,2.3263,2.3264,2.3265,0,0,0,0,0,0,2.3066,2.3072,2.3121,2.3099,2.3105,2.3117,2.313,2.3131,2.314,2.3152,2.3154,2.3142,2.3166,2.317,2.3195,2.3209,2.3185,2.3187,2.3262,2.3263,2.3265,2.3277,0,0,0,0,0,0,2.3064,2.3072,2.3082,2.3099,2.3106,2.3143,2.3131,2.3132,2.3143,2.3143,2.3159,2.3161,2.3165,2.3192,2.3197,2.3211,2.3189,2.3261,2.3263,2.3264,2.3275,2.3278,2.3281,0,0,0,0,0,2.3062,2.3083,2.3083,2.3088,2.312,2.3143,2.3147,2.3152,2.3144,2.3155,2.3164,2.3161,2.3207,2.3195,2.32,2.3215,2.326,2.3262,2.3264,2.3274,2.3278,2.3281,0,0,0,0,0,0,2.3066,2.3086,2.3085,2.3112,2.3126,2.3143,2.3156,2.3156,2.3172,2.317,2.3175,2.3179,2.3205,2.3212,2.3199,2.3244,2.3232,2.3236,2.3238,2.3242,2.3245,2.3242,2.319,0,0,0,0,0,2.3071,2.3089,2.3104,2.3127,2.3134,2.3144,2.3155,2.3158,2.3172,2.3178,2.3188,2.3202,2.322,2.3231,2.3248,2.3277,2.3281,2.3289,2.3292,2.3295,2.3298,2.3315,2.332,2.3272,2.3272,2.3272,0,0,2.3079,2.3092,2.3103,2.3128,2.3139,2.3158,2.3149,2.3169,2.3183,2.318,2.3205,2.3214,2.3229,2.3257,2.327,2.3264,2.3312,2.3297,2.3299,2.3301,2.3318,2.3322,2.3326,2.3273,2.3273,2.3273,0,0,2.3105,2.3116,2.3137,2.3149,2.3167,2.3174,2.3179,2.3196,2.3201,2.3227,2.3226,2.3243,2.3273,2.3285,2.3295,2.3327,2.3326,2.3333,2.3348,2.3365,2.3369,2.3372,2.3385,2.339,2.3335,2.3336,2.3336,0,2.3114,2.3142,2.3148,2.3169,2.318,2.318,2.3202,2.3213,2.3235,2.3243,2.3237,2.3276,2.3286,2.3318,2.3326,2.3334,2.334,2.3331,2.3368,2.3371,2.3375,2.3387,2.3392,2.3336,2.3336,2.3336,2.3336,0,2.3153,2.3172,2.3187,2.321,2.3223,2.3244,2.3254,2.3266,2.3268,2.3276,2.3303,2.3316,2.3336,2.3344,2.3345,2.3376,2.3372,2.3367,2.3355,2.338,2.3392,2.3396,2.3338,2.3337,2.3337,2.3337,0,0,2.3181,2.3208,2.3213,2.3225,2.3245,2.326,2.3282,2.3303,2.3314,2.333,2.3348,2.3375,2.3371,2.3382,2.3386,2.34,2.3427,2.3394,2.3394,2.34,2.3464,2.3468,2.3473,2.3426,2.3427,2.3428,2.3463,0,2.321,2.3248,2.3255,2.3289,2.3308,2.3309,2.3328,2.3343,2.3351,2.3369,2.3377,2.3397,2.3389,2.3397,2.3411,2.3421,2.344,2.3418,2.3444,2.3445,2.3441,2.3479,2.3483,2.3515,2.3467,2.3468,2.3468,0,2.3248,2.3266,2.3302,2.3322,2.333,2.3347,2.3368,2.3384,2.3402,2.3407,2.3421,2.3422,2.3445,2.3433,2.3465,2.3451,2.3462,2.3468,2.347,2.3473,2.3459,2.3484,2.3526,2.3531,2.3475,2.3475,2.3474,0,2.3267,2.33,2.3326,2.3336,2.3359,2.3371,2.3381,2.3398,2.341,2.3428,2.3437,2.3457,2.3468,2.3484,2.3492,2.3482,2.3524,2.3512,2.3529,2.3529,2.3538,2.3538,2.3583,2.3544,2.3544,2.3544,2.3544,0,2.3298,2.3321,2.3336,2.3352,2.3377,2.3385,2.341,2.342,2.3435,2.3454,2.3455,2.3473,2.3481,2.35,2.3506,2.3533,2.3538,2.3543,2.3544,2.3543,2.3543,2.3551,2.3549,2.3545,2.3545,2.3545,2.3545,0,2.3324,2.3334,2.3363,2.3384,2.3389,2.3407,2.3425,2.3441,2.345,2.3473,2.3479,2.3493,2.3515,2.3524,2.3551,2.3556,2.3587,2.3586,2.3581,2.3582,2.36,2.3598,2.3652,2.366,2.3615,2.3616,2.3616,0,2.3343,2.3361,2.3384,2.3397,2.3408,2.3428,2.3442,2.3451,2.3465,2.3487,2.3501,2.3523,2.3542,2.3578,2.359,2.3612,2.3612,2.363,2.3615,2.3614,2.3614,2.3613,2.3616,2.3632,2.3633,2.3633,2.3633,0,2.3378,2.3383,2.3403,2.3425,2.3442,2.3459,2.3477,2.3487,2.3499,2.3514,2.3538,2.3553,2.3582,2.3605,2.3627,2.3637,2.3638,2.3638,2.3643,2.3643,2.364,2.3643,2.359,2.3637,2.3636,2.3636,2.3636,2.3636,2.3402,2.3419,2.3438,2.346,2.3475,2.3491,2.3508,2.352,2.354,2.3564,2.3568,2.3594,2.3612,2.3642,2.3654,2.3674,2.367,2.3677,2.3679,2.3681,2.3683,2.3636,2.3678,2.3678,2.3678,2.3678,2.3678,0,2.3438,2.3451,2.3472,2.3497,2.3515,2.3514,2.3534,2.3549,2.3572,2.3589,2.3608,2.3636,2.3659,2.3673,2.3696,2.371,2.3711,2.3716,2.3715,2.3718,2.3685,2.3679,2.3715,2.3715,2.3715,2.3715,2.3715,2.3715,2.3459,2.3488,2.3495,2.3531,2.3544,2.357,2.3581,2.3597,2.3611,2.3642,2.3661,2.3671,2.3688,2.3712,2.3733,2.3737,2.3746,2.3752,2.3755,2.3724,2.372,2.3717,2.3711,2.3753,2.3753,2.3787,2.3787,2.3788]}]]